User: anonymous   Login
Location: Brotuna
(46.2000°N, 22.6000°E)
Time: 15:53:37
(UTC+00:00)
Language:

STARLINK-1192 - Orbit

View from above orbital plane
View from above orbital plane
View from above satellite
View from above satellite

Ground track
Ground track

The orbit data is extracted from the following two-line orbital elements,

1 45180U 20012C   20196.58334491 -.00017665  00000-0 -11960-2 0  9994
2 45180  53.0002 312.7531 0001607 111.1743 159.2911 15.05587492 23092
Epoch (UTC): 14 July 2020 14:00:01
Eccentricity: 0.0001607
inclination: 53.0002°
perigee height: 548 km
apogee height: 551 km
right ascension of ascending node: 312.7531°
argument of perigee: 111.1743°
revolutions per day: 15.05587492
mean anomaly at epoch: 159.2911°
orbit number at epoch: 2309

The dashed part of the orbit path shows where the satellite is in the earth's shadow,  

DLR